SA3PJN-WX Weather Reports


time (UTC)temp
F
wind
direction
speed
knots
gust
knots
rain 1hr
in
rain 24hr
in
rain mn
in
humidity
%
barometer
mb
20260506093802 47 109 3.5 15.6 0.00 0.00 0.00 45 966.4
20260506093302 48 57 3.5 15.6 0.00 0.00 0.00 45 966.4
20260506092802 48 126 3.5 15.6 0.00 0.00 0.00 45 966.4
20260506092305 48 325 2.6 8.7 0.00 0.00 0.00 44 966.5
20260506091802 47 50 2.6 13.0 0.00 0.00 0.00 45 966.5
20260506091302 47 34 3.5 13.0 0.00 0.00 0.00 46 966.5
20260506090802 46 358 3.5 11.3 0.00 0.00 0.00 47 966.5
20260506090232 46 99 3.5 9.6 0.00 0.00 0.00 47 966.5
20260506085732 46 97 3.5 9.6 0.00 0.00 0.00 47 966.4
20260506085232 47 358 3.5 13.0 0.00 0.00 0.00 48 966.5
20260506084732 46 93 3.5 13.0 0.00 0.00 0.00 48 966.5
20260506084232 45 76 4.3 15.6 0.00 0.00 0.00 49 966.5
20260506083702 45 112 3.5 15.6 0.00 0.00 0.00 48 966.4
20260506083202 46 101 3.5 15.6 0.00 0.00 0.00 47 966.4
20260506082702 46 109 3.5 13.9 0.00 0.00 0.00 47 966.6
20260506082202 45 20 5.2 17.4 0.00 0.00 0.00 50 966.4
20260506081702 44 112 4.3 17.4 0.00 0.00 0.00 54 966.5
20260506081202 42 184 4.3 13.0 0.00 0.00 0.00 50 966.4
20260506080702 44 41 4.3 13.0 0.00 0.00 0.00 52 966.5
20260506080202 44 65 4.3 13.0 0.00 0.00 0.00 49 966.3
20260506073201 42 98 4.3 13.0 0.00 0.00 0.00 53 966.4
20260506072701 43 111 4.3 11.3 0.00 0.00 0.00 56 966.2
20260506072201 42 79 4.3 13.9 0.00 0.00 0.00 57 966.2
20260506071701 42 104 4.3 13.9 0.00 0.00 0.00 56 966.2
20260506071201 42 344 3.5 12.2 0.00 0.00 0.00 57 966.1
20260506070701 41 73 4.3 14.8 0.00 0.00 0.00 55 966.0
20260506070201 43 145 4.3 14.8 0.00 0.00 0.00 55 966.0
20260506062101 41 43 5.2 14.8 0.00 0.00 0.00 62 966.0
20260506061531 38 179 5.2 14.8 0.00 0.00 0.00 62 965.6
20260506061001 40 123 4.3 16.5 0.00 0.00 0.00 60 966.0
20260506060431 40 0 4.3 16.5 0.00 0.00 0.00 60 966.0
20260506051301 38 113 4.3 13.9 0.00 0.00 0.00 62 965.4
20260506050801 39 107 4.3 16.5 0.00 0.00 0.00 63 965.3
20260506050301 38 120 5.2 16.5 0.00 0.00 0.00 65 965.3
20260506044731 37 166 4.3 14.8 0.00 0.00 0.00 66 965.2
20260506044231 37 85 4.3 14.8 0.00 0.00 0.00 67 965.4
20260506043731 36 122 4.3 14.8 0.00 0.00 0.00 67 965.2
20260506043231 36 96 4.3 13.0 0.00 0.00 0.00 68 965.2
20260506042701 35 131 4.3 15.6 0.00 0.00 0.00 70 965.2
20260506042200 32 277 4.3 15.6 0.00 0.00 0.00 74 965.2
20260506041700 33 124 4.3 14.8 0.00 0.00 0.00 71 965.0
20260506041200 36 63 4.3 18.2 0.00 0.00 0.00 67 965.0
20260506040700 35 105 3.5 18.2 0.00 0.00 0.00 68 965.0
20260506040130 35 3 3.5 18.2 0.00 0.00 0.00 68 965.0
20260506035630 35 11 3.5 14.8 0.00 0.00 0.00 71 965.0
20260506035100 34 93 4.3 14.8 0.00 0.00 0.00 72 965.0
20260506034600 33 88 3.5 14.8 0.00 0.00 0.00 74 965.0
20260506034030 33 73 3.5 10.4 0.00 0.00 0.00 75 965.0
20260506033530 31 353 3.5 10.4 0.00 0.00 0.00 80 964.6
20260506033000 31 64 3.5 11.3 0.00 0.00 0.00 80 965.0
20260506032430 31 175 3.5 11.3 0.00 0.00 0.00 81 965.0
20260506031930 31 154 4.3 11.3 0.00 0.00 0.00 81 965.0
20260506031430 31 203 4.3 13.9 0.00 0.00 0.00 81 965.0
20260506030930 31 112 4.3 13.9 0.00 0.00 0.00 81 964.6
20260506030430 31 113 4.3 13.0 0.00 0.00 0.00 82 964.6
20260506025930 31 138 4.3 13.9 0.00 0.00 0.00 81 964.6
20260506025400 31 146 4.3 13.9 0.00 0.00 0.00 81 964.6
20260506024900 31 115 4.3 13.9 0.00 0.00 0.00 81 964.6
20260506024400 31 67 4.3 13.9 0.00 0.00 0.00 82 964.6
20260506023900 31 41 4.3 14.8 0.00 0.00 0.00 82 964.6
20260506023400 31 36 4.3 14.8 0.00 0.00 0.00 82 964.5
20260506022900 31 103 4.3 13.0 0.00 0.00 0.00 81 964.6
20260506022400 31 96 3.5 13.0 0.00 0.00 0.00 81 965.0
20260506021900 31 339 3.5 13.0 0.00 0.00 0.00 80 964.6
20260506021400 31 117 3.5 11.3 0.00 0.00 0.00 81 964.6
20260506020830 31 7 3.5 11.3 0.00 0.00 0.00 81 964.5
20260506020330 31 114 3.5 13.0 0.00 0.00 0.00 81 964.5
20260506015800 31 92 3.5 13.0 0.00 0.00 0.00 81 964.4
20260506015300 31 28 3.5 13.0 0.00 0.00 0.00 81 965.0
20260506014730 31 56 3.5 10.4 0.00 0.00 0.00 82 964.5
20260506014230 31 118 2.6 9.6 0.00 0.00 0.00 82 964.5
20260506013730 31 14 2.6 9.6 0.00 0.00 0.00 83 964.4
20260506013230 31 78 2.6 8.7 0.00 0.00 0.00 83 964.4
20260506012700 31 39 2.6 8.7 0.00 0.00 0.00 83 964.4
20260506012200 31 70 2.6 9.6 0.00 0.00 0.00 83 964.3
20260506011700 30 124 2.6 13.9 0.00 0.00 0.00 84 964.2
20260506011200 30 62 2.6 13.9 0.00 0.00 0.00 84 964.2
20260506010700 30 104 2.6 13.9 0.00 0.00 0.00 83 964.2
20260506010130 30 128 2.6 10.4 0.00 0.00 0.00 83 964.1
20260506005630 30 114 2.6 10.4 0.00 0.00 0.00 82 964.2
20260506005100 29 83 2.6 7.8 0.00 0.00 0.00 83 964.1
20260506004600 29 66 1.7 7.8 0.00 0.00 0.00 82 964.1
20260506004100 30 349 2.6 8.7 0.00 0.00 0.00 82 964.2
20260506003600 30 356 2.6 8.7 0.00 0.00 0.00 83 964.0
20260506003100 30 85 3.5 9.6 0.00 0.00 0.00 82 964.2
20260506002530 30 68 3.5 11.3 0.00 0.00 0.00 82 964.0
20260506002000 30 247 2.6 11.3 0.00 0.00 0.00 82 964.0
20260506001429 30 70 2.6 11.3 0.00 0.00 0.00 83 964.0
20260506000929 30 118 3.5 13.9 0.00 0.00 0.00 84 964.0
20260506000401 30 122 2.6 13.9 0.00 0.00 0.00 84 964.0
20260505235859 29 26 1.7 7.8 0.00 0.00 0.00 84 964.0
20260505235359 29 353 2.6 7.8 0.00 0.00 0.00 83 964.1
20260505234859 29 94 2.6 6.1 0.00 0.00 0.00 83 964.0
20260505234329 29 102 1.7 7.8 0.00 0.00 0.00 83 964.0
20260505233829 29 121 1.7 7.8 0.00 0.00 0.00 83 964.0
20260505233329 29 61 2.6 9.6 0.00 0.00 0.00 83 964.0
20260505232759 30 88 2.6 9.6 0.00 0.00 0.00 84 964.1
20260505232259 30 123 2.6 9.6 0.00 0.00 0.00 83 964.0
20260505231759 30 67 2.6 7.8 0.00 0.00 0.00 84 964.0
20260505231259 29 89 2.6 8.7 0.00 0.00 0.00 84 964.0
20260505230729 29 16 2.6 11.3 0.00 0.00 0.00 85 964.0
20260505230229 29 81 2.6 11.3 0.00 0.00 0.00 84 964.0
20260505225729 29 113 2.6 11.3 0.00 0.00 0.00 84 964.0
20260505225229 29 17 1.7 6.1 0.00 0.00 0.00 84 964.1
20260505224729 29 14 1.7 6.1 0.00 0.00 0.00 84 964.0
20260505224229 29 310 1.7 5.2 0.00 0.00 0.00 84 964.0
20260505223659 29 15 1.7 7.0 0.00 0.00 0.00 83 964.0
20260505223159 29 14 1.7 7.8 0.00 0.00 0.00 82 964.0
20260505222659 30 117 1.7 7.8 0.00 0.00 0.00 82 964.0
20260505222129 30 49 1.7 7.8 0.00 0.00 0.00 82 964.0
20260505221629 30 67 1.7 7.8 0.00 0.00 0.00 82 964.0
20260505221129 30 134 1.7 7.8 0.00 0.00 0.00 82 964.0
20260505220629 30 95 1.7 7.8 0.00 0.00 0.00 83 964.0
20260505220129 29 50 1.7 5.2 0.00 0.00 0.00 82 964.0
20260505215629 30 97 1.7 7.0 0.00 0.00 0.00 82 964.0
20260505215059 30 3 2.6 9.6 0.00 0.00 0.00 82 964.0
20260505214559 30 24 2.6 10.4 0.00 0.00 0.00 82 964.0
20260505214059 30 334 2.6 10.4 0.00 0.00 0.00 82 964.0
20260505213529 30 82 2.6 11.3 0.00 0.00 0.00 82 964.0
20260505213029 30 125 2.6 11.3 0.00 0.00 0.00 81 964.0
20260505212529 30 105 1.7 9.6 0.00 0.00 0.00 82 964.0
20260505212028 30 40 0.9 6.1 0.00 0.00 0.00 83 964.0
20260505211528 30 120 0.9 6.1 0.00 0.00 0.00 83 963.6
20260505210958 30 0 0.9 6.1 0.00 0.00 0.00 83 964.0
20260505210458 30 99 1.7 6.1 0.00 0.00 0.00 82 964.0
20260505205958 31 119 2.6 9.6 0.00 0.00 0.00 82 964.0
20260505205458 31 78 2.6 9.6 0.00 0.00 0.00 83 963.5
20260505204958 31 102 2.6 7.8 0.00 0.00 0.00 83 963.3
20260505204458 31 223 2.6 8.7 0.00 0.00 0.00 85 963.3
20260505203958 31 59 2.6 8.7 0.00 0.00 0.00 85 963.4
20260505203458 31 99 2.6 8.7 0.00 0.00 0.00 86 963.4
20260505202958 31 70 2.6 8.7 0.00 0.00 0.00 87 963.1
20260505202458 31 96 2.6 7.8 0.00 0.00 0.00 88 963.1
20260505201958 31 37 2.6 9.6 0.00 0.00 0.00 87 963.2
20260505201458 31 356 2.6 9.6 0.00 0.00 0.00 87 963.2
20260505200958 31 80 2.6 10.4 0.00 0.00 0.00 87 963.3
20260505200458 31 42 1.7 10.4 0.00 0.00 0.00 86 963.3
20260505195958 31 77 1.7 8.7 0.00 0.00 0.00 84 963.3
20260505195458 32 75 1.7 7.0 0.00 0.00 0.00 83 963.3
20260505194958 32 63 2.6 7.0 0.00 0.00 0.00 82 963.3
20260505194458 32 15 2.6 9.6 0.00 0.00 0.00 81 963.3
20260505193958 32 108 2.6 11.3 0.00 0.00 0.00 81 963.3
20260505193458 33 107 2.6 11.3 0.00 0.00 0.00 81 963.2
20260505192958 33 111 3.5 13.0 0.00 0.00 0.00 79 963.2
20260505192458 33 55 3.5 13.0 0.00 0.00 0.00 78 963.2
20260505191958 34 334 3.5 13.0 0.00 0.00 0.00 77 963.2
20260505191428 34 117 4.3 14.8 0.00 0.00 0.00 73 963.2
20260505190928 35 131 4.3 14.8 0.00 0.00 0.00 71 963.1
20260505190358 35 53 3.5 13.0 0.00 0.00 0.00 71 963.1
20260505185858 35 113 3.5 13.0 0.00 0.00 0.00 70 963.0
20260505185358 35 66 4.3 14.8 0.00 0.00 0.00 69 963.0
20260505184858 35 124 5.2 16.5 0.00 0.00 0.00 70 963.0
20260505184358 35 114 4.3 16.5 0.00 0.00 0.00 69 963.0
20260505183828 35 63 3.5 11.3 0.00 0.00 0.00 68 963.0
20260505183328 35 114 3.5 12.2 0.00 0.00 0.00 66 963.0
20260505182827 35 119 4.3 14.8 0.00 0.00 0.00 66 963.0
20260505182327 35 192 5.2 14.8 0.00 0.00 0.00 65 963.0
20260505181757 36 161 6.1 17.4 0.00 0.00 0.00 63 963.0
20260505181257 36 126 6.1 18.2 0.00 0.00 0.00 62 963.0
20260505180757 37 124 7.0 18.2 0.00 0.00 0.00 62 963.0
20260505180257 37 184 6.1 18.2 0.00 0.00 0.00 62 962.6
20260505175757 37 184 5.2 12.2 0.00 0.00 0.00 63 963.0
20260505175257 37 196 6.1 12.2 0.00 0.00 0.00 65 962.6
20260505174757 36 182 5.2 13.0 0.00 0.00 0.00 65 962.6
20260505174257 36 189 5.2 13.0 0.00 0.00 0.00 65 962.6
20260505173757 36 198 6.1 16.5 0.00 0.00 0.00 64 962.6
20260505173257 37 189 6.1 16.5 0.00 0.00 0.00 64 963.0
20260505172757 37 134 5.2 16.5 0.00 0.00 0.00 61 962.4
20260505172257 37 190 5.2 13.9 0.00 0.00 0.00 58 962.5
20260505171757 37 189 5.2 15.6 0.00 0.00 0.00 56 962.5
20260505171257 38 133 5.2 15.6 0.00 0.00 0.00 53 962.5
20260505170757 38 151 5.2 15.6 0.00 0.00 0.00 52 962.5
20260505170227 38 164 6.1 19.1 0.00 0.00 0.00 53 962.4
20260505165657 38 189 7.0 19.1 0.00 0.00 0.00 51 962.3
20260505165157 38 169 7.0 19.1 0.00 0.00 0.00 51 962.4
20260505164657 38 157 6.1 22.6 0.00 0.00 0.00 52 962.4
20260505164157 38 175 6.1 22.6 0.00 0.00 0.00 51 962.3
20260505163657 38 182 6.1 22.6 0.00 0.00 0.00 50 962.1
20260505163127 39 61 5.2 22.6 0.00 0.00 0.00 50 962.0
20260505162627 39 67 5.2 17.4 0.00 0.00 0.00 48 962.1
20260505162127 40 35 4.3 13.9 0.00 0.00 0.00 54 962.1
20260505161627 39 86 4.3 13.9 0.00 0.00 0.00 55 962.1
20260505161127 38 187 4.3 13.9 0.00 0.00 0.00 53 962.1
20260505160627 39 83 5.2 13.9 0.00 0.00 0.00 55 962.2
20260505153056 39 142 5.2 15.6 0.00 0.00 0.00 51 962.1
20260505152556 39 146 5.2 17.4 0.00 0.00 0.00 52 962.1
20260505152026 39 77 5.2 17.4 0.00 0.00 0.00 51 962.1
20260505151526 40 17 5.2 16.5 0.00 0.00 0.00 50 962.1
20260505151026 41 73 5.2 16.5 0.00 0.00 0.00 48 962.0
20260505150526 43 139 7.0 25.2 0.00 0.00 0.00 46 962.0
20260505140326 36 193 6.1 22.6 0.00 0.00 0.00 64 962.0
20260505130126 39 129 6.1 13.0 0.00 0.00 0.00 60 961.4
20260505124556 38 123 7.0 22.6 0.00 0.00 0.00 56 961.5
20260505124056 39 167 7.0 22.6 0.00 0.00 0.00 56 961.5
20260505123556 41 161 7.8 24.3 0.00 0.00 0.00 54 961.2
20260505123056 40 139 8.7 24.3 0.00 0.00 0.00 60 961.2
20260505122556 42 189 7.0 22.6 0.00 0.00 0.00 47 961.1
20260505122056 43 186 6.1 21.7 0.00 0.00 0.00 49 961.0
20260505121556 44 183 7.0 22.6 0.00 0.00 0.00 45 961.0
20260505121056 43 122 7.0 22.6 0.00 0.00 0.00 47 961.0
20260505120556 43 129 6.1 18.2 0.00 0.00 0.00 48 960.6
20260505120056 43 140 6.1 18.2 0.00 0.00 0.00 46 961.0
20260505115526 44 107 7.0 20.0 0.00 0.00 0.00 51 961.0
20260505114956 42 116 7.0 20.9 0.00 0.00 0.00 52 961.0
20260505114425 43 141 7.8 26.1 0.00 0.00 0.00 48 961.0
20260505113855 43 134 7.0 26.1 0.00 0.00 0.00 46 961.0
20260505113355 44 129 5.2 22.6 0.00 0.00 0.00 44 961.0
20260505112855 44 88 5.2 18.2 0.00 0.00 0.00 45 961.0
20260505112355 46 106 5.2 17.4 0.00 0.00 0.00 44 960.6
20260505111826 45 105 4.3 16.5 0.00 0.00 0.00 47 961.0
20260505111325 45 136 5.2 16.5 0.00 0.00 0.00 49 960.6
20260505110825 44 199 5.2 19.1 0.00 0.00 0.00 51 961.0
20260505110255 44 46 4.3 19.1 0.00 0.00 0.00 52 961.0
20260505101725 38 126 4.3 14.8 0.00 0.00 0.00 57 960.4
20260505101225 38 87 6.1 19.1 0.00 0.00 0.00 61 960.4
20260505100655 38 187 7.0 20.0 0.00 0.00 0.00 58 960.5
20260505100155 38 159 7.8 20.0 0.00 0.00 0.00 56 960.3
20260505095655 38 193 6.1 20.0 0.00 0.00 0.00 55 960.3
20260505095155 39 212 5.2 15.6 0.00 0.00 0.00 57 960.2
20260505094655 38 116 5.2 14.8 0.00 0.00 0.00 58 960.2
20260505094155 38 86 5.2 16.5 0.00 0.00 0.00 56 960.2